Flag for Canada Weather past 2 weeks in Surrey, British Columbia, Canada

Now
49 °F

Cool.


Feels Like: 49 °F
Forecast: 45 / 54 °F
Wind: 1 mph from South

Location: P. Meadows Coastal Station

Current Time: Jan 25, 2015 at 2:27:27 AM

Latest Report: Jan 25, 2015 at 1:00 AM


Visibility: N/A

Pressure: 30.18 "Hg

Humidity: 99%

Dew point: 49 °F

Location of SurreyLocation

Historic Weather in Surrey — Graph

°F

Surrey temperature yesterday

Maximum temperature yesterday: 52 °F (at 12:00 AM)
Minimum temperature yesterday: 48 °F (at 11:00 PM)
Average temperature yesterday: 50 °F

Past Weeks' High & Low Weather Summary

 TemperatureHumidityPressure
High54 °F (Jan 23, 10:00 PM)100% (Jan 10, 1:00 AM)30.50 "Hg (Jan 10, 1:00 AM)
Low29 °F (Jan 15, 5:00 AM)62% (Jan 19, 4:00 PM)29.47 "Hg (Jan 18, 1:00 AM)
Average42 °F94%30.19 "Hg
* Reported Jan 10 1:00 AM — Jan 25 1:00 AM, Surrey, Weather by CustomWeather, © 2014

Note: Actual official high and low records may vary slightly from our data, if they occured in-between our weather recording intervals... More about our weather records

Advertising

Surrey weather history for previous 24 hours

 ConditionsComfort  
Time TempWeatherWind HumidityBarometerVisibility
1:00 AM
Jan 25
49 °FCool.1 mph99%30.18 "HgN/A
12:00 AM48 °FCool.1 mph99%30.19 "HgN/A
11:00 PM
Jan 24
48 °FCool.2 mph99%30.18 "HgN/A
10:00 PM49 °FCool.1 mph100%30.17 "HgN/A
9:00 PM49 °FCool.No wind99%30.16 "HgN/A
8:00 PM50 °FCool.1 mph98%30.18 "HgN/A
7:00 PM51 °FCool.No wind99%30.18 "HgN/A
6:00 PM51 °FCool.1 mph99%30.19 "HgN/A
5:00 PM51 °FCool.No wind92%30.19 "HgN/A
4:00 PM51 °FCool.2 mph92%30.20 "HgN/A
3:00 PM52 °FCool.1 mph98%30.20 "HgN/A
2:00 PM51 °FCool.2 mph98%30.22 "HgN/A
1:00 PM51 °FCool.2 mph98%30.24 "HgN/A
12:00 PM51 °FCool.7 mph98%30.26 "HgN/A
11:00 AM50 °FCool.6 mph99%30.27 "HgN/A
10:00 AM50 °FCool.1 mph98%30.26 "HgN/A
9:00 AM50 °FCool.7 mph99%30.25 "HgN/A
8:00 AM49 °FCool.7 mph98%30.25 "HgN/A
7:00 AM49 °FCool.1 mph99%30.26 "HgN/A
6:00 AM49 °FCool.2 mph99%30.26 "HgN/A
5:00 AM49 °FCool.2 mph99%30.26 "HgN/A
4:00 AM49 °FCool.1 mph98%30.27 "HgN/A
3:00 AM50 °FCool.No wind99%30.26 "HgN/A
2:00 AM50 °FCool.No wind97%30.24 "HgN/A
Weather by CustomWeather, © 2014

See weather overviewHow to use our weather pages